Nelson, NV

2:24 AM PST en Enero 26, 2015 (GMT -0800)
Boulder City | Change Station
CLOSE
Current Station
Aeropuerto
Location: Boulder City,
Altura: 2201 ft
Estaciones meteorológicas cercanas

Alt 2201 ft 35.95 °N, 114.86 °W | Updated 9 minutes ago

Despejado
Despejado
52 ° F
Sensación térmica 52 ° F
N
0
Viento Variable Viento desde Norte

Hoy
Alta -- | Baja -- ° F
--% Posibilidad de precipitaciones
Ayer
Alta -- | Baja -- ° F
Precip. -- pul
6:43 AM 5:00 PM
Creciente, 41% visible
Presión 30.18 pul
Visibilidad 10.0 Millas
Nubes Despejado
Punto de rocío 34 ° F
Humedad 50%
Precipitaciones 0.00 pul
Espesor de la nieve No disponible.
UV 0 de una escala de 12
Polen 4.80 de una escala de 12
Calidad del aire No disponible.
Flu Activity No disponible.
METAR KBVU 261015Z AUTO 00000KT 10SM CLR 11/01 A3018 RMK AO2

More Conditions Fewer Conditions

Presión 30.18 pul
Visibilidad 10.0 Millas
Nubes Despejado
Punto de rocío 34 ° F
Humedad 50%
Precipitaciones 0.00 pul
Espesor de la nieve No disponible.
UV 0 de una escala de 12
Polen 4.80 de una escala de 12
Calidad del aire No disponible.
Flu Activity No disponible.
METAR KBVU 261015Z AUTO 00000KT 10SM CLR 11/01 A3018 RMK AO2

More Conditions Fewer Conditions

10-Day Weather Forecast

Almanac

Astronomía

Jan. 26, 2015 Salida Puesta
Hora real
Crepúsculo civil
Crepúsculo náutico
Crepúsculo astronómico
Luna
Horas de luz
Horas de luz
Tomorrow will be .
, % of the Moon is Illuminated

Extremos de hoy

Máximos del estado Bajos del estado

Community

WunderPhotos

Upload Photos

1,790,171 ¡fotos cargadas!

WunderBlogs® & News

Nearby

Calidad del aire

  Calidad del aire Índice AQ Contaminante
Not available.

Grosos de nieve

Estación Profundido Altura

Actividad de terremotos

Ciudad Distance Mag. Tiempo y dato
Magnitud mínima muestra es 2,5.

Temperaturas de aguas costeras

Lugar Temperatura

Estaciones meteorológicas cercanas